TimeCST,TemperatureF,Dew PointF,Humidity,Sea Level PressureIn,VisibilityMPH,Wind Direction,Wind SpeedMPH,Gust SpeedMPH,PrecipitationIn,Events,Conditions,WindDirDegrees,DateUTC
12:56 AM,34.0,30.0,85,30.17,10.0,NNW,4.6,-,N/A,,Clear,340,2012-11-25 06:56:00
1:56 AM,35.1,28.9,78,30.17,10.0,North,3.5,-,N/A,,Clear,10,2012-11-25 07:56:00
2:56 AM,34.0,28.9,82,30.18,10.0,Calm,Calm,-,N/A,,Clear,0,2012-11-25 08:56:00
3:56 AM,30.9,28.9,92,30.18,10.0,Calm,Calm,-,N/A,,Clear,0,2012-11-25 09:56:00
4:56 AM,30.0,27.0,88,30.18,10.0,North,3.5,-,N/A,,Clear,350,2012-11-25 10:56:00
5:56 AM,32.0,28.9,88,30.19,10.0,North,3.5,-,N/A,,Clear,360,2012-11-25 11:56:00
6:56 AM,30.0,28.9,96,30.22,10.0,Calm,Calm,-,N/A,,Clear,0,2012-11-25 12:56:00
7:56 AM,46.0,36.0,68,30.24,10.0,Calm,Calm,-,N/A,,Clear,0,2012-11-25 13:56:00
8:56 AM,52.0,32.0,47,30.25,10.0,ENE,8.1,-,N/A,,Clear,70,2012-11-25 14:56:00
9:56 AM,55.0,33.1,43,30.25,10.0,ENE,5.8,-,N/A,,Clear,60,2012-11-25 15:56:00
10:56 AM,57.9,35.1,42,30.22,10.0,Variable,5.8,-,N/A,,Clear,0,2012-11-25 16:56:00
11:56 AM,57.0,37.9,49,30.19,10.0,ESE,8.1,-,N/A,,Clear,120,2012-11-25 17:56:00
12:56 PM,59.0,41.0,51,30.17,10.0,Variable,4.6,-,N/A,,Clear,0,2012-11-25 18:56:00
1:56 PM,57.2,41.0,55,30.16,10.0,East,5.8,-,N/A,,Partly Cloudy,100,2012-11-25 19:56:00
2:56 PM,57.9,42.1,56,30.14,10.0,SSE,5.8,-,N/A,,Clear,160,2012-11-25 20:56:00
3:56 PM,57.9,43.0,58,30.14,10.0,SSE,5.8,-,N/A,,Clear,160,2012-11-25 21:56:00
4:56 PM,52.0,43.0,71,30.14,10.0,South,3.5,-,N/A,,Clear,190,2012-11-25 22:56:00
5:28 PM,46.4,42.8,87,30.14,10.0,Calm,Calm,-,N/A,,Clear,0,2012-11-25 23:28:00
5:56 PM,46.0,43.0,89,30.15,10.0,Calm,Calm,-,N/A,,Clear,0,2012-11-25 23:56:00
6:56 PM,41.0,39.9,96,30.16,10.0,Calm,Calm,-,0.00,Rain,Light Rain,0,2012-11-26 00:56:00
7:56 PM,41.0,39.9,96,30.16,10.0,Calm,Calm,-,0.00,,Clear,0,2012-11-26 01:56:00
8:56 PM,39.0,37.9,96,30.16,10.0,Calm,Calm,-,0.00,,Clear,0,2012-11-26 02:56:00
9:56 PM,39.0,37.9,96,30.16,9.0,Calm,Calm,-,0.00,,Clear,0,2012-11-26 03:56:00
10:56 PM,37.9,37.0,97,30.15,10.0,Calm,Calm,-,0.00,Snow,Light Snow,0,2012-11-26 04:56:00
11:56 PM,39.0,37.9,96,30.14,10.0,Calm,Calm,-,0.00,,Clear,0,2012-11-26 05:56:00